Flag for Germany Weather past 2 weeks in Nürtingen, Baden-Württemberg, Germany

Now
57 °F

Partly cloudy.


Feels Like: 57 °F
Forecast: 53 / 73 °F
Wind: 1 mph from East

Location: Stuttgart-Echterdingen

Current Time: Aug 29, 2014 at 7:29:26 AM

Latest Report: Aug 29, 2014 at 6:50 AM


Visibility: N/A

Pressure: 30.04 "Hg

Humidity: 100%

Dew point: 57 °F

Location of NürtingenLocation

Historic Weather in Nürtingen — Graph

°F

Nürtingen temperature yesterday

Maximum temperature yesterday: 73 °F (at 3:20 PM)
Minimum temperature yesterday: 52 °F (at 4:20 AM)
Average temperature yesterday: 63 °F

Past Weeks' High & Low Weather Summary

 TemperatureHumidityPressure
High73 °F (Aug 28, 3:20 PM)100% (Aug 25, 6:20 AM)30.18 "Hg (Aug 25, 6:20 AM)
Low45 °F (Aug 25, 5:20 AM)38% (Aug 22, 4:20 PM)29.68 "Hg (Aug 26, 5:50 AM)
Average59 °F75%30.00 "Hg
* Reported Aug 14 6:20 AM — Aug 29 6:20 AM, Nürtingen, Weather by CustomWeather, © 2014

Note: Actual official high and low records may vary slightly from our data, if they occured in-between our weather recording intervals... More about our weather records

Advertising

Nürtingen weather history for previous 24 hours

 ConditionsComfort  
Time TempWeatherWind HumidityBarometerVisibility
6:20 AM
Aug 29
57 °FPassing clouds.1 mph100%30.04 "HgN/A
5:50 AM55 °FFog.1 mph94%30.04 "HgN/A
5:20 AM55 °FClear.1 mph100%30.04 "Hg10 mi
4:50 AM57 °FClear.1 mph94%30.04 "Hg10 mi
4:20 AM57 °FClear.3 mph94%30.04 "Hg10 mi
3:50 AM57 °FClear.2 mph94%30.04 "Hg10 mi
3:20 AM57 °FClear.2 mph100%30.04 "Hg10 mi
2:50 AM57 °FClear.1 mph100%30.04 "Hg10 mi
2:20 AM57 °FClear.1 mph94%30.04 "Hg10 mi
1:50 AM59 °FClear.2 mph94%30.04 "Hg10 mi
1:20 AM61 °FClear.1 mph88%30.07 "Hg10 mi
12:50 AM61 °FClear.1 mph88%30.07 "Hg10 mi
12:20 AM61 °FClear.1 mph88%30.07 "Hg10 mi
11:50 PM
Aug 28
61 °FClear.1 mph88%30.07 "Hg10 mi
11:20 PM61 °FClear.2 mph88%30.07 "Hg10 mi
10:50 PM63 °FClear.2 mph88%30.04 "Hg10 mi
10:20 PM64 °FClear.2 mph83%30.07 "Hg10 mi
9:50 PM66 °FClear.2 mph78%30.07 "Hg10 mi
9:20 PM68 °FClear.3 mph73%30.04 "Hg10 mi
8:50 PM68 °FSunny.1 mph73%30.04 "Hg10 mi
8:20 PM70 °FSunny.2 mph69%30.04 "Hg10 mi
7:50 PM70 °FSunny.5 mph69%30.04 "Hg10 mi
7:20 PM70 °FSunny.6 mph69%30.04 "Hg10 mi
6:50 PM72 °FSunny.6 mph61%30.04 "Hg10 mi
6:20 PM73 °FSunny.3 mph53%30.04 "Hg10 mi
5:20 PM73 °FSunny.2 mph47%30.04 "Hg10 mi
4:50 PM73 °FSunny.2 mph50%30.04 "Hg10 mi
4:20 PM73 °FScattered clouds.5 mph53%30.04 "HgN/A
3:50 PM73 °FScattered clouds.5 mph50%30.04 "HgN/A
3:20 PM73 °FScattered clouds.5 mph50%30.04 "HgN/A
2:50 PM72 °FScattered clouds.5 mph57%30.04 "HgN/A
2:20 PM72 °FScattered clouds.7 mph57%30.04 "HgN/A
1:50 PM72 °FScattered clouds.3 mph53%30.04 "HgN/A
1:20 PM72 °FPassing clouds.3 mph57%30.07 "HgN/A
12:50 PM70 °FPassing clouds.3 mph60%30.07 "HgN/A
12:20 PM70 °FPassing clouds.3 mph69%30.07 "HgN/A
11:50 AM68 °FPassing clouds.3 mph69%30.07 "HgN/A
11:20 AM68 °FPassing clouds.2 mph69%30.07 "HgN/A
10:50 AM66 °FPassing clouds.2 mph73%30.07 "HgN/A
10:20 AM63 °FScattered clouds.2 mph83%30.07 "HgN/A
9:50 AM59 °FSunny.2 mph94%30.07 "Hg10 mi
9:20 AM57 °FSunny.2 mph94%30.07 "Hg10 mi
8:50 AM55 °FSunny.2 mph100%30.07 "Hg10 mi
8:20 AM55 °FPartly sunny.2 mph100%30.09 "HgN/A
7:50 AM54 °FPartly sunny.No wind100%30.09 "HgN/A
7:20 AM54 °FPassing clouds.No wind100%30.07 "Hg4 mi
Weather by CustomWeather, © 2014

See weather overviewHow to use our weather pages